Weather History for Aberdeen, SD

Change the Weather History Date:

Thursday, April 25, 2013

  Actual Average Record
Temperature  
Mean Temperature 38 °F 49 °F  
Max Temperature 56 °F 62 °F 97 °F (1962)
Min Temperature 19 °F 36 °F 19 °F (1958)
Degree Days  
Heating Degree Days 27 16  
Month to date heating degree days 836 546  
Since 1 July heating degree days 8645 8097  
Cooling Degree Days 0 0  
Month to date cooling degree days 0 0  
Year to date cooling degree days 0 0  
Moisture  
Dew Point 28 °F    
Average Humidity 71    
Maximum Humidity 91    
Minimum Humidity 51    
Precipitation  
Precipitation 0.00 in 0.08 in 1.45 in (1986)
Month to date precipitation 2.12 1.42  
Year to date precipitation 4.20 3.60  
Snow  
Snow 0.00 in - - ()
Month to date snowfall 21.8  
Since 1 July snowfall 62.8  
Snow Depth T in    
Sea Level Pressure  
Sea Level Pressure 30.05 in    
Wind  
Wind Speed 11 mph (SSE)    
Max Wind Speed 23 mph    
Max Gust Speed 29 mph    
Visibility 10 miles    
Events      
T = Trace of Precipitation, MM = Missing Value Source: NWS Daily Summary

Daily Weather History Graph

Daily Weather History Graph

Search for Another Location

Airport:

Trip Planner

Search our weather history database for the weather conditions in past years. The results will help you decide how hot, cold, wet, or windy it might be!

Date:

Astronomy

Apr. 25, 2013 Rise Set
Actual Time 6:30 AM CDT 8:33 PM CDT
Civil Twilight 5:58 AM CDT 9:05 PM CDT
Nautical Twilight 5:19 AM CDT 9:44 PM CDT
Astronomical Twilight 4:36 AM CDT 10:28 PM CDT
Moon 8:49 PM CDT (4/25) 6:15 AM CDT (4/25)
Length of Visible Light 15h 06m
Length of Day
14h 02m
Full, 100% of the Moon is Illuminated
Apr 25
Full
Apr 25
Full
May 2
Last Quarter
May 9
New
May 17
First Quarter

Hourly Weather History & Observations

Time (CDT) Temp. Windchill Dew Point Humidity Pressure Visibility Wind Dir Wind Speed Gust Speed Precip Events Conditions
12:53 AM 23.0 °F 13.9 °F 17.1 °F 78% 30.18 in 10.0 mi SW 8.1 mph - N/A   Clear
1:53 AM 21.9 °F 14.5 °F 18.0 °F 85% 30.17 in 10.0 mi WSW 5.8 mph - N/A   Clear
2:53 AM 23.0 °F 17.0 °F 18.0 °F 81% 30.17 in 10.0 mi WSW 4.6 mph - N/A   Clear
3:53 AM 19.9 °F 13.4 °F 16.0 °F 85% 30.17 in 10.0 mi SW 4.6 mph - N/A   Clear
4:53 AM 19.9 °F 12.1 °F 17.1 °F 89% 30.18 in 10.0 mi SW 5.8 mph - N/A   Clear
5:53 AM 19.9 °F 13.4 °F 16.0 °F 85% 30.17 in 10.0 mi SSW 4.6 mph - N/A   Clear
6:53 AM 19.9 °F 13.4 °F 16.0 °F 85% 30.17 in 10.0 mi South 4.6 mph - N/A   Clear
7:53 AM 27.0 °F 18.7 °F 21.0 °F 78% 30.17 in 10.0 mi South 8.1 mph - N/A   Clear
8:53 AM 32.0 °F 23.6 °F 24.1 °F 73% 30.16 in 10.0 mi SSE 10.4 mph - N/A   Clear
9:53 AM 36.0 °F 27.1 °F 24.1 °F 62% 30.13 in 10.0 mi SSE 13.8 mph - N/A   Clear
10:53 AM 37.9 °F 28.9 °F 27.0 °F 65% 30.11 in 10.0 mi SSE 16.1 mph - N/A   Clear
11:53 AM 43.0 °F 35.7 °F 30.0 °F 60% 30.09 in 10.0 mi South 15.0 mph - N/A   Clear
12:53 PM 46.0 °F 39.6 °F 34.0 °F 63% 30.05 in 10.0 mi SSE 15.0 mph - N/A   Clear
1:53 PM 51.1 °F - 37.0 °F 59% 30.01 in 10.0 mi South 16.1 mph - N/A   Clear
2:53 PM 54.0 °F - 37.9 °F 55% 29.98 in 10.0 mi SSE 19.6 mph - N/A   Clear
3:53 PM 55.0 °F - 37.0 °F 51% 29.96 in 10.0 mi South 20.7 mph 26.5 mph N/A   Clear
4:53 PM 55.0 °F - 41.0 °F 59% 29.94 in 10.0 mi ESE 16.1 mph 23.0 mph N/A   Clear
5:53 PM 51.1 °F - 39.9 °F 66% 29.91 in 10.0 mi ESE 17.3 mph 23.0 mph N/A   Clear
6:53 PM 50.0 °F - 37.9 °F 63% 29.90 in 10.0 mi ESE 15.0 mph - N/A   Clear
7:53 PM 48.0 °F - 37.9 °F 68% 29.88 in 10.0 mi East 12.7 mph - N/A   Clear
8:53 PM 46.0 °F 40.2 °F 37.0 °F 71% 29.87 in 10.0 mi ESE 12.7 mph - N/A   Mostly Cloudy
9:53 PM 45.0 °F 39.7 °F 36.0 °F 71% 29.88 in 10.0 mi ESE 10.4 mph - N/A   Clear
10:53 PM 43.0 °F - 36.0 °F 76% 29.90 in 10.0 mi Calm Calm - N/A   Partly Cloudy
11:53 PM 39.9 °F - 34.0 °F 79% 29.90 in 10.0 mi Calm Calm - N/A   Mostly Cloudy